Regional Weather Roundup
Issued by NWS

Home | Current Version | Previous Version | Graphics & Text | Print | Product List | Glossary On
Versions: 1 2 3 4 5 6 7 8 9 10 11 12 13 14 15 16 17 18 19 20 21 22 23 24 25 26 27 28 29 30 31 32 33 34 35 36 37 38 39 40 41 42 43 44 45 46 47 48 49 50
946
ASUS44 KLIX 250405
RWRLA
LOUISIANA WEATHER ROUNDUP
NATIONAL WEATHER SERVICE NEW ORLEANS LA
1100 PM CDT FRI OCT 24 2014

NOTE: "FAIR" INDICATES FEW OR NO CLOUDS BELOW 12,000 FEET WITH NO
      SIGNIFICANT WEATHER AND/OR OBSTRUCTIONS TO VISIBILITY.
      SKY/WX - SKY CONDITION AND SIGNIFICANT WEATHER.
      TMP - AIR TEMPERATURE.    DP   - DEWPOINT TEMPERATURE.
      RH  - RELATIVE HUMIDITY.  PRES - PRESSURE.
      HX  - HEAT INDEX.         WCI  - WIND CHILL INDEX.

*  THESE STATIONS ARE NOT NWS OR FAA STATIONS AND ARE NOT UNDER
   NWS QUALITY CONTROL.

LAZ040-048-061>063-065-066-069-250500-
SOUTHEAST LOUISIANA

CITY           SKY/WX    TMP DP  RH WIND       PRES   REMARKS
N.O. AUDUBON     N/A     62  58  87 MISG        N/A
N.O. INTL ARPT CLEAR     65  53  65 N3        30.10S
N.O. LAKEFRONT CLEAR     70  52  52 N14       30.10S
N.O. DOWNTOWN* FAIR      70  48  46 N3        30.10S
SLIDELL        CLEAR     51  48  89 CALM      30.09S
BATON ROUGE    CLEAR     56  50  80 N3        30.12R
BOOTHVILLE     CLEAR     67  60  78 N5        30.08F
BELLE CHASSE   CLEAR     53  48  83 CALM      30.09S
BOGALUSA*        N/A     50  46  85 CALM      30.12R
NEW ROADS*     FAIR      53  50  92 CALM      30.13S
GONZALES*      FAIR      53  53 100 CALM      30.11S
HAMMOND*       CLEAR     54  48  82 CALM      30.13R
HOUMA*         CLEAR     53  51  91 CALM      30.10S
PORT FOURCHON* CLEAR     66  55  68 N6        30.12F

$$

LAZ041-044-053-054-250500-
SOUTHWEST LOUISIANA

CITY           SKY/WX    TMP DP  RH WIND       PRES   REMARKS
LAKE CHARLES   CLEAR     56  52  86 CALM      30.13S
LAFAYETTE      CLEAR     56  52  86 N3        30.13R
PATTERSON      CLEAR     55  54  94 CALM      30.13S
SALT POINT       N/A     62  53  72 CALM      30.10F
NEW IBERIA     CLEAR     56  52  86 N3        30.13R
CHENAULT AIRPK CLEAR     58  52  80 CALM      30.14S

$$

LAZ027-028-250500-
CENTRAL LOUISIANA

CITY           SKY/WX    TMP DP  RH WIND       PRES   REMARKS
FORT POLK      CLEAR     57  52  85 NW2       30.14R
ALEXANDRIA INT CLEAR     54  51  90 CALM      30.13R
ALEXANDRIA     PTCLDY    49  49 100 CALM      30.14S FOG

$$

LAZ001-002-250500-
NORTHWEST LOUISIANA

CITY           SKY/WX    TMP DP  RH WIND       PRES   REMARKS
SHREVEPORT     MOCLDY    59  56  89 CALM      30.12S
BARKSDALE AFB  CLEAR     57  56  94 SE2       30.13S
DTN SHREVEPORT CLEAR     59  54  83 CALM      30.13R

$$

LAZ014-016-250500-
NORTHEAST LOUISIANA

CITY           SKY/WX    TMP DP  RH WIND       PRES   REMARKS
MONROE         CLEAR     53  52  96 CALM      30.14S FOG
TALLULAH       CLEAR     47  45  93 CALM      30.14R

$$




USA.gov is the U.S. government's official web portal to all federal, state and local government web resources and services.